map of ASU home
Great Circle Mapper logo
ASU - Airport
Location
City:  Asuncion, Paraguay
Name:Silvio Pettirossi International Airport
ICAO / IATA:SGAS / ASU

Details
Type:Airport (Aerodrome, Airfield)
Use:Public/Civil, Military, International (customs port of entry)
Latitude:2514'23"S (-25.239849)
Longitude:5731'09"W (-57.519132)
Datum:WGS 1984
Elevation:292 ft (89 m)
Runways:1
Longest:11001 × 151 ft (3353 × 46 m), paved

Time
Time Zone:UTC-4 (DST-3)
Local Time:

Weather
METAR:SGAS 251400Z VRB04KT CAVOK 33/18 Q1011
TAF:SGAS 250508Z 2506/2606 00000KT 7000 NSC TX36/2519Z TN21/2510Z
TEMPO 2506/2509 VRB04KT 6000 NSC
BECMG 2510/2514 15005KT CAVOK
BECMG 2515/2519 20004KT 9999 SCT033
BECMG 2520/2600 15006KT CAVOK

Related Locations
Nearby:
Farthest:TSA: 12386 mi / 19934 km
Taipei [Taipei Songshan (Sung Shan)], TW

Find:

   beyond  
but within

Other Information
Maps:
NOTAMs:
Links:
Sources:

  
flag of Paraguay   

Airport Diagram

Airport diagram for ASU

Airport diagram (OBSOLETE) from NGA

Sectional Chart

Flight Planning
at skyvector.com

Satellite Image

Google Maps Satellite View

 

Copyright © 2004-2014 Karl L. Swartz. All rights reserved.
The Great Circle Mapper name and logo are trademarks of the Great Circle Mapper.
All other trademarks mentioned herein belong to their respective owners.
Please see credits for attibutions and further copyright information.

  Follow gcmap on Facebook Follow gcmap on Twitter

hCard Microformat

Geo Microformat